TimeCDT,TemperatureF,Dew PointF,Humidity,Sea Level PressureIn,VisibilityMPH,Wind Direction,Wind SpeedMPH,Gust SpeedMPH,PrecipitationIn,Events,Conditions,WindDirDegrees,DateUTC
12:15 AM,48.2,44.6,87,30.34,10.0,NE,3.5,-,N/A,,Clear,50,2013-09-16 05:15:00
12:36 AM,48.2,44.6,87,30.34,10.0,Calm,Calm,-,N/A,,Clear,0,2013-09-16 05:36:00
12:55 AM,48.2,44.6,87,30.34,10.0,ENE,4.6,-,N/A,,Clear,70,2013-09-16 05:55:00
1:15 AM,48.2,44.6,87,30.34,10.0,ENE,6.9,-,N/A,,Clear,70,2013-09-16 06:15:00
1:35 AM,50.0,46.4,87,30.35,10.0,East,6.9,-,N/A,,Clear,80,2013-09-16 06:35:00
1:55 AM,50.0,46.4,87,30.35,10.0,East,6.9,-,N/A,,Clear,90,2013-09-16 06:55:00
2:15 AM,48.2,46.4,93,30.36,10.0,Calm,Calm,-,N/A,,Clear,90,2013-09-16 07:15:00
2:36 AM,48.2,44.6,87,30.36,10.0,East,3.5,-,N/A,,Clear,100,2013-09-16 07:36:00
2:55 AM,46.4,44.6,93,30.36,10.0,ESE,3.5,-,N/A,,Clear,110,2013-09-16 07:55:00
3:15 AM,48.2,44.6,87,30.37,10.0,Calm,Calm,-,N/A,,Mostly Cloudy,0,2013-09-16 08:15:00
3:35 AM,48.2,44.6,87,30.37,10.0,Calm,Calm,-,N/A,,Overcast,0,2013-09-16 08:35:00
3:55 AM,48.2,44.6,87,30.37,10.0,Calm,Calm,-,N/A,,Overcast,0,2013-09-16 08:55:00
4:15 AM,48.2,44.6,87,30.38,10.0,SE,4.6,-,N/A,,Overcast,130,2013-09-16 09:15:00
4:35 AM,48.2,44.6,87,30.38,10.0,SE,3.5,-,N/A,,Overcast,130,2013-09-16 09:35:00
4:55 AM,48.2,44.6,87,30.38,10.0,ESE,4.6,-,N/A,,Overcast,110,2013-09-16 09:55:00
5:15 AM,48.2,46.4,93,30.38,10.0,Calm,Calm,-,N/A,,Overcast,0,2013-09-16 10:15:00
5:35 AM,48.2,46.4,93,30.38,10.0,Calm,Calm,-,N/A,,Overcast,0,2013-09-16 10:35:00
5:55 AM,48.2,44.6,87,30.38,10.0,East,4.6,-,N/A,,Mostly Cloudy,100,2013-09-16 10:55:00
6:15 AM,46.4,44.6,93,30.38,10.0,East,4.6,-,N/A,,Scattered Clouds,90,2013-09-16 11:15:00
6:35 AM,46.4,42.8,87,30.39,10.0,East,5.8,-,N/A,,Clear,90,2013-09-16 11:35:00
6:55 AM,44.6,42.8,93,30.39,10.0,East,4.6,-,N/A,,Clear,90,2013-09-16 11:55:00
7:15 AM,44.6,42.8,93,30.39,10.0,East,5.8,-,N/A,,Clear,90,2013-09-16 12:15:00
7:35 AM,46.4,42.8,87,30.39,10.0,East,6.9,-,N/A,,Clear,90,2013-09-16 12:35:00
7:55 AM,48.2,44.6,87,30.39,10.0,East,5.8,-,N/A,,Clear,100,2013-09-16 12:55:00
8:15 AM,48.2,42.8,82,30.40,10.0,East,3.5,-,N/A,,Clear,90,2013-09-16 13:15:00
8:35 AM,50.0,42.8,76,30.40,10.0,ESE,4.6,-,N/A,,Clear,110,2013-09-16 13:35:00
8:55 AM,50.0,42.8,76,30.40,10.0,ESE,5.8,-,N/A,,Clear,110,2013-09-16 13:55:00
9:15 AM,51.8,42.8,71,30.41,10.0,SE,9.2,-,N/A,,Clear,140,2013-09-16 14:15:00
9:35 AM,51.8,42.8,71,30.41,10.0,SE,9.2,-,N/A,,Clear,130,2013-09-16 14:35:00
9:55 AM,51.8,42.8,71,30.41,10.0,SE,5.8,-,N/A,,Clear,140,2013-09-16 14:55:00
10:15 AM,53.6,42.8,67,30.41,10.0,SE,5.8,-,N/A,,Clear,130,2013-09-16 15:15:00
10:35 AM,53.6,42.8,67,30.41,10.0,ESE,6.9,-,N/A,,Clear,120,2013-09-16 15:35:00
10:55 AM,53.6,44.6,72,30.40,10.0,ESE,3.5,-,N/A,,Clear,110,2013-09-16 15:55:00
11:15 AM,55.4,44.6,67,30.39,10.0,SE,8.1,-,N/A,,Clear,130,2013-09-16 16:15:00
11:35 AM,57.2,44.6,63,30.40,10.0,SE,8.1,-,N/A,,Clear,140,2013-09-16 16:35:00
11:55 AM,57.2,44.6,63,30.39,10.0,SE,4.6,-,N/A,,Clear,140,2013-09-16 16:55:00
12:15 PM,59.0,44.6,59,30.39,10.0,SSE,4.6,-,N/A,,Clear,150,2013-09-16 17:15:00
12:35 PM,60.8,46.4,59,30.38,10.0,ESE,8.1,-,N/A,,Clear,120,2013-09-16 17:35:00
12:55 PM,60.8,44.6,55,30.38,10.0,SSE,8.1,-,N/A,,Clear,150,2013-09-16 17:55:00
1:15 PM,62.6,46.4,55,30.37,10.0,ESE,5.8,-,N/A,,Clear,120,2013-09-16 18:15:00
1:35 PM,62.6,46.4,55,30.37,10.0,ESE,8.1,-,N/A,,Clear,110,2013-09-16 18:35:00
1:55 PM,62.6,44.6,52,30.36,10.0,SSE,6.9,-,N/A,,Clear,150,2013-09-16 18:55:00
2:15 PM,64.4,44.6,49,30.35,10.0,SE,8.1,-,N/A,,Clear,130,2013-09-16 19:15:00
2:35 PM,64.4,44.6,49,30.34,10.0,ESE,9.2,-,N/A,,Clear,120,2013-09-16 19:35:00
2:55 PM,64.4,44.6,49,30.33,10.0,SE,9.2,16.1,N/A,,Clear,130,2013-09-16 19:55:00
3:15 PM,64.4,46.4,52,30.32,10.0,ESE,10.4,-,N/A,,Clear,120,2013-09-16 20:15:00
3:35 PM,66.2,44.6,46,30.31,10.0,ESE,9.2,-,N/A,,Clear,110,2013-09-16 20:35:00
3:55 PM,66.2,44.6,46,30.30,10.0,ESE,9.2,-,N/A,,Clear,120,2013-09-16 20:55:00
4:15 PM,66.2,44.6,46,30.29,10.0,ESE,10.4,-,N/A,,Clear,110,2013-09-16 21:15:00
4:35 PM,66.2,44.6,46,30.28,10.0,ESE,12.7,17.3,N/A,,Clear,120,2013-09-16 21:35:00
4:55 PM,66.2,44.6,46,30.28,10.0,SE,11.5,-,N/A,,Clear,130,2013-09-16 21:55:00
5:15 PM,66.2,46.4,49,30.27,10.0,SE,10.4,16.1,N/A,,Clear,130,2013-09-16 22:15:00
5:35 PM,66.2,44.6,46,30.27,10.0,SSE,9.2,-,N/A,,Clear,150,2013-09-16 22:35:00
5:55 PM,64.4,44.6,49,30.26,10.0,SE,9.2,-,N/A,,Clear,140,2013-09-16 22:55:00
6:15 PM,64.4,46.4,52,30.26,10.0,SSE,6.9,-,N/A,,Clear,150,2013-09-16 23:15:00
6:35 PM,64.4,46.4,52,30.25,-9999.0,SE,5.8,-,N/A,,Clear,140,2013-09-16 23:35:00
6:55 PM,62.6,48.2,59,30.25,10.0,SSE,4.6,-,N/A,,Clear,150,2013-09-16 23:55:00
7:15 PM,59.0,48.2,67,30.24,10.0,SE,4.6,-,N/A,,Clear,130,2013-09-17 00:15:00
7:35 PM,57.2,48.2,72,30.23,10.0,SE,4.6,-,N/A,,Clear,130,2013-09-17 00:35:00
7:55 PM,55.4,48.2,77,30.23,10.0,ESE,4.6,-,N/A,,Clear,110,2013-09-17 00:55:00
8:15 PM,55.4,48.2,77,30.24,10.0,ESE,6.9,-,N/A,,Clear,110,2013-09-17 01:15:00
8:35 PM,55.4,48.2,77,30.23,10.0,ESE,6.9,-,N/A,,Clear,120,2013-09-17 01:35:00
8:55 PM,55.4,48.2,77,30.24,10.0,ESE,5.8,-,N/A,,Clear,120,2013-09-17 01:55:00
9:15 PM,53.6,48.2,82,30.23,10.0,ESE,6.9,-,N/A,,Clear,120,2013-09-17 02:15:00
9:35 PM,53.6,48.2,82,30.23,10.0,SE,6.9,-,N/A,,Clear,130,2013-09-17 02:35:00
9:55 PM,53.6,48.2,82,30.23,10.0,SE,6.9,-,N/A,,Clear,130,2013-09-17 02:55:00
10:15 PM,53.6,48.2,82,30.23,10.0,SE,5.8,-,N/A,,Clear,130,2013-09-17 03:15:00
10:35 PM,53.6,48.2,82,30.23,10.0,SE,5.8,-,N/A,,Clear,130,2013-09-17 03:35:00
10:55 PM,53.6,48.2,82,30.23,10.0,SE,6.9,-,N/A,,Clear,130,2013-09-17 03:55:00
11:16 PM,53.6,48.2,82,30.22,10.0,SE,6.9,-,N/A,,Clear,130,2013-09-17 04:16:00
11:35 PM,53.6,48.2,82,30.22,10.0,SE,6.9,-,N/A,,Clear,140,2013-09-17 04:35:00
11:55 PM,53.6,48.2,82,30.22,10.0,SSE,6.9,-,N/A,,Clear,150,2013-09-17 04:55:00